GAOFEN-10R

Last updated on Fri Apr 25 2025 00:02:26 GMT+0000 (Coordinated Universal Time)

1 44622U 19066A 25114.51285839 .00003005 00000+0 38091-3 0 9995 2 44622 98.0010 61.5836 0007228 67.8253 292.3726 14.82491437300330
UTC large
Height (km)
Speed (km/s)
/
Latitude / Longitude
Inclination (degrees)
Orbital Period (minutes)
Azimuth
Elevation
Range (km)
Doppler Factor

Next 0 passes for location: London (51.5072 / 0.1276)

Sorry there are no passes over London.